Iowa City, IA

5:05 AM CDT on October 20, 2017 (GMT -0500)
Iowa City Municipal

Weather History for KIOW - January, 2013

Change the Weather History Date:

Sunday, January 13, 2013

  Actual Average Record
Temperature  
Mean Temperature 16 °F 22 °F  
Max Temperature 20 °F 30 °F 59 °F (1961)
Min Temperature 12 °F 14 °F -12 °F (1963)
Degree Days  
Heating Degree Days 49 43  
Month to date heating degree days 501 559  
Since 1 July heating degree days 2873 3098  
Cooling Degree Days 0 0  
Month to date cooling degree days 0 0  
Year to date cooling degree days 0 0  
Moisture  
Dew Point 6 °F    
Average Humidity 70    
Maximum Humidity 84    
Minimum Humidity 56    
Precipitation  
Precipitation T in 0.01 in 1.00 in (1979)
Month to date precipitation 0.17 0.24  
Year to date precipitation 0.17 0.24  
Sea Level Pressure  
Sea Level Pressure 30.20 in    
Wind  
Wind Speed 12 mph (WNW)    
Max Wind Speed 22 mph    
Max Gust Speed 26 mph    
Visibility 10 miles    
Events Snow    
T = Trace of Precipitation, MM = Missing Value Source: NWS Daily Summary

Daily Weather History Graph

Daily Weather History Graph

Search for Another Location

Airport or City:

Trip Planner

Search our weather history database for the weather conditions in past years. The results will help you decide how hot, cold, wet, or windy it might be!

Date:

Astronomy

Jan. 13, 2013 Rise Set
Actual Time 7:31 AM CST 4:59 PM CST
Civil Twilight 7:00 AM CST 5:29 PM CST
Nautical Twilight 6:26 AM CST 6:04 PM CST
Astronomical Twilight 5:52 AM CST 6:37 PM CST
Moon 8:27 AM CST (1/13) 7:40 PM CST (1/13)
Length of Visible Light 10h 29m
Length of Day
9h 27m
Waxing Crescent, 5% of the Moon is Illuminated
Jan 13
Waxing Crescent
Jan 18
First Quarter
Jan 26
Full
Feb 3
Last Quarter
Feb 10
New

Hourly Weather History & Observations

Time (CST) Temp. Windchill Dew Point Humidity Pressure Visibility Wind Dir Wind Speed Gust Speed Precip Events Conditions
12:52 AM 19.0 °F 5.0 °F 9.0 °F 65% 30.04 in 10.0 mi NW 15.0 mph 21.9 mph N/A   Overcast
1:52 AM 17.1 °F 3.6 °F 8.1 °F 68% 30.09 in 10.0 mi NW 12.7 mph - N/A   Clear
2:52 AM 16.0 °F 3.6 °F 7.0 °F 68% 30.06 in 10.0 mi NW 10.4 mph - N/A   Clear
3:52 AM 15.1 °F 2.5 °F 7.0 °F 70% 30.11 in 10.0 mi WNW 10.4 mph - N/A   Clear
4:52 AM 15.1 °F 3.3 °F 6.1 °F 68% 30.09 in 10.0 mi NW 9.2 mph - N/A   Clear
5:52 AM 14.0 °F 5.1 °F 7.0 °F 74% 30.12 in 10.0 mi WNW 5.8 mph - N/A   Mostly Cloudy
6:52 AM 15.1 °F 1.8 °F 8.1 °F 74% 30.15 in 9.0 mi WNW 11.5 mph - 0.00 in Snow Light Snow
7:52 AM 15.1 °F 2.5 °F 8.1 °F 74% 30.17 in 9.0 mi NW 10.4 mph - 0.00 in   Overcast
8:52 AM 14.0 °F -0.2 °F 6.1 °F 71% 30.17 in 10.0 mi NW 12.7 mph - N/A   Overcast
9:52 AM 12.9 °F -3.4 °F 5.0 °F 71% 30.17 in 10.0 mi NW 16.1 mph 20.7 mph N/A   Overcast
10:52 AM 14.0 °F 2.0 °F 3.9 °F 64% 30.19 in 10.0 mi West 9.2 mph - N/A   Overcast
11:52 AM 15.1 °F -0.1 °F 3.9 °F 61% 30.19 in 10.0 mi West 15.0 mph 20.7 mph N/A   Mostly Cloudy
12:52 PM 15.1 °F -0.1 °F 3.9 °F 61% 30.18 in 10.0 mi WNW 15.0 mph 23.0 mph N/A   Overcast
1:52 PM 16.0 °F 1.1 °F 6.1 °F 65% 30.15 in 10.0 mi WNW 15.0 mph 20.7 mph N/A   Mostly Cloudy
2:52 PM 17.1 °F 1.0 °F 6.1 °F 62% 30.19 in 10.0 mi WNW 18.4 mph 24.2 mph N/A   Overcast
3:09 PM 17.6 °F 2.7 °F 5.0 °F 58% 30.16 in 10.0 mi West 16.1 mph - N/A   Scattered Clouds
3:52 PM 17.1 °F 1.0 °F 5.0 °F 59% 30.22 in 10.0 mi West 18.4 mph - N/A   Clear
4:52 PM 16.0 °F 1.1 °F 6.1 °F 65% 30.25 in 10.0 mi West 15.0 mph 20.7 mph N/A   Clear
5:52 PM 15.1 °F 2.5 °F 6.1 °F 68% 30.28 in 10.0 mi WNW 10.4 mph - N/A   Scattered Clouds
5:59 PM 15.8 °F 5.1 °F 6.8 °F 68% 30.24 in 10.0 mi WNW 8.1 mph - N/A   Mostly Cloudy
6:52 PM 16.0 °F 5.3 °F 7.0 °F 68% 30.29 in 10.0 mi WNW 8.1 mph - N/A   Overcast
7:52 PM 16.0 °F 4.4 °F 8.1 °F 71% 30.30 in 10.0 mi WNW 9.2 mph - N/A   Scattered Clouds
8:52 PM 14.0 °F 3.9 °F 8.1 °F 77% 30.31 in 10.0 mi West 6.9 mph - N/A   Clear
9:52 PM 12.9 °F 3.8 °F 8.1 °F 81% 30.32 in 10.0 mi WNW 5.8 mph - N/A   Clear
10:52 PM 12.0 °F 2.7 °F 7.0 °F 80% 30.33 in 10.0 mi WNW 5.8 mph - N/A   Clear
11:52 PM 14.0 °F 2.0 °F 6.1 °F 71% 30.35 in 10.0 mi NW 9.2 mph - N/A   Clear